Year,Month,Day,Hour,Minute,Value (Times are PST for temperature in C)
2010,05,15,00,00,10.20
2010,05,15,00,01,10.10
2010,05,15,00,02,10.10
2010,05,15,00,03,10.10
2010,05,15,00,04,10.20
2010,05,15,00,05,10.20
2010,05,15,00,06,10.20
2010,05,15,00,07,10.20
2010,05,15,00,08,10.30
2010,05,15,00,09,10.30
2010,05,15,00,10,10.30
2010,05,15,00,11,10.30
2010,05,15,00,12,10.30
2010,05,15,00,13,10.30
2010,05,15,00,14,10.30
2010,05,15,00,15,10.20
2010,05,15,00,16,10.20
2010,05,15,00,17,10.10
2010,05,15,00,18,10.10
2010,05,15,00,19,10.10
2010,05,15,00,20,10.00
2010,05,15,00,21,10.00
2010,05,15,00,22,9.90
2010,05,15,00,23,9.90
2010,05,15,00,24,9.90
2010,05,15,00,25,9.80
2010,05,15,00,26,9.70
2010,05,15,00,27,9.70
2010,05,15,00,28,9.70
2010,05,15,00,29,9.60
2010,05,15,00,30,9.60
2010,05,15,00,31,9.60
2010,05,15,00,32,9.70
2010,05,15,00,33,9.70
2010,05,15,00,34,9.70
2010,05,15,00,35,9.70
2010,05,15,00,36,9.70
2010,05,15,00,37,9.70
2010,05,15,00,38,9.70
2010,05,15,00,39,9.70
2010,05,15,00,40,9.70
2010,05,15,00,41,9.70
2010,05,15,00,42,9.70
2010,05,15,00,43,9.70
2010,05,15,00,44,9.60
2010,05,15,00,45,9.60
2010,05,15,00,46,9.60
2010,05,15,00,47,9.60
2010,05,15,00,48,9.60
2010,05,15,00,49,9.50
2010,05,15,00,50,9.50
2010,05,15,00,51,9.40
2010,05,15,00,52,9.40
2010,05,15,00,53,9.30
2010,05,15,00,54,9.30
2010,05,15,00,55,9.30
2010,05,15,00,56,9.30
2010,05,15,00,57,9.30
2010,05,15,00,58,9.30
2010,05,15,00,59,9.30
2010,05,15,01,00,9.30
2010,05,15,01,01,9.20
2010,05,15,01,02,9.20
2010,05,15,01,03,9.20
2010,05,15,01,04,9.20
2010,05,15,01,05,9.20
2010,05,15,01,06,9.20
2010,05,15,01,07,9.20
2010,05,15,01,08,9.20
2010,05,15,01,09,9.20
2010,05,15,01,10,9.20
2010,05,15,01,11,9.20
2010,05,15,01,12,9.20
2010,05,15,01,13,9.10
2010,05,15,01,14,9.10
2010,05,15,01,15,9.00
2010,05,15,01,16,9.00
2010,05,15,01,17,8.90
2010,05,15,01,18,8.90
2010,05,15,01,19,8.90
2010,05,15,01,20,8.90
2010,05,15,01,21,8.90
2010,05,15,01,22,8.90
2010,05,15,01,23,8.90
2010,05,15,01,24,8.80
2010,05,15,01,25,8.80
2010,05,15,01,26,8.80
2010,05,15,01,27,8.80
2010,05,15,01,28,8.80
2010,05,15,01,29,8.80
2010,05,15,01,30,8.80
2010,05,15,01,31,8.80
2010,05,15,01,32,8.80
2010,05,15,01,33,8.80
2010,05,15,01,34,8.80
2010,05,15,01,35,8.80
2010,05,15,01,36,8.80
2010,05,15,01,37,8.80
2010,05,15,01,38,8.80
2010,05,15,01,39,8.80
2010,05,15,01,40,8.70
2010,05,15,01,41,8.70
2010,05,15,01,42,8.70
2010,05,15,01,43,8.70
2010,05,15,01,44,8.70
2010,05,15,01,45,8.70
2010,05,15,01,46,8.60
2010,05,15,01,47,8.60
2010,05,15,01,48,8.60
2010,05,15,01,49,8.60
2010,05,15,01,50,8.60
2010,05,15,01,51,8.60
2010,05,15,01,52,8.60
2010,05,15,01,53,8.60
2010,05,15,01,54,8.60
2010,05,15,01,55,8.60
2010,05,15,01,56,8.60
2010,05,15,01,57,8.60
2010,05,15,01,58,8.60
2010,05,15,01,59,8.50
2010,05,15,02,00,8.50
2010,05,15,02,01,8.50
2010,05,15,02,02,8.50
2010,05,15,02,03,8.50
2010,05,15,02,04,8.40
2010,05,15,02,05,8.40
2010,05,15,02,06,8.40
2010,05,15,02,07,8.40
2010,05,15,02,08,8.50
2010,05,15,02,09,8.50
2010,05,15,02,10,8.50
2010,05,15,02,11,8.60
2010,05,15,02,12,8.60
2010,05,15,02,13,8.60
2010,05,15,02,14,8.50
2010,05,15,02,15,8.50
2010,05,15,02,16,8.40
2010,05,15,02,17,8.40
2010,05,15,02,18,8.30
2010,05,15,02,19,8.30
2010,05,15,02,20,8.30
2010,05,15,02,21,8.30
2010,05,15,02,22,8.30
2010,05,15,02,23,8.20
2010,05,15,02,24,8.30
2010,05,15,02,25,8.30
2010,05,15,02,26,8.30
2010,05,15,02,27,8.30
2010,05,15,02,28,8.30
2010,05,15,02,29,8.40
2010,05,15,02,30,8.40
2010,05,15,02,31,8.30
2010,05,15,02,32,8.30
2010,05,15,02,33,8.30
2010,05,15,02,34,8.30
2010,05,15,02,35,8.30
2010,05,15,02,36,8.30
2010,05,15,02,37,8.20
2010,05,15,02,38,8.20
2010,05,15,02,39,8.20
2010,05,15,02,40,8.20
2010,05,15,02,41,8.20
2010,05,15,02,42,8.20
2010,05,15,02,43,8.20
2010,05,15,02,44,8.20
2010,05,15,02,45,8.20
2010,05,15,02,46,8.20
2010,05,15,02,47,8.20
2010,05,15,02,48,8.20
2010,05,15,02,49,8.10
2010,05,15,02,50,8.10
2010,05,15,02,51,8.10
2010,05,15,02,52,8.10
2010,05,15,02,53,8.10
2010,05,15,02,54,8.10
2010,05,15,02,55,8.10
2010,05,15,02,56,8.10
2010,05,15,02,57,8.10
2010,05,15,02,58,8.10
2010,05,15,02,59,8.10
2010,05,15,03,00,8.10
2010,05,15,03,01,8.20
2010,05,15,03,02,8.30
2010,05,15,03,03,8.30
2010,05,15,03,04,8.40
2010,05,15,03,05,8.40
2010,05,15,03,06,8.50
2010,05,15,03,07,8.60
2010,05,15,03,08,8.60
2010,05,15,03,09,8.60
2010,05,15,03,10,8.60
2010,05,15,03,11,8.50
2010,05,15,03,12,8.50
2010,05,15,03,13,8.40
2010,05,15,03,14,8.40
2010,05,15,03,15,8.40
2010,05,15,03,16,8.30
2010,05,15,03,17,8.30
2010,05,15,03,18,8.30
2010,05,15,03,19,8.30
2010,05,15,03,20,8.30
2010,05,15,03,21,8.20
2010,05,15,03,22,8.20
2010,05,15,03,23,8.20
2010,05,15,03,24,8.20
2010,05,15,03,25,8.10
2010,05,15,03,26,8.10
2010,05,15,03,27,8.10
2010,05,15,03,28,8.10
2010,05,15,03,29,8.10
2010,05,15,03,30,8.10
2010,05,15,03,31,8.10
2010,05,15,03,32,8.10
2010,05,15,03,33,8.10
2010,05,15,03,34,8.00
2010,05,15,03,35,8.00
2010,05,15,03,36,8.00
2010,05,15,03,37,7.90
2010,05,15,03,38,7.90
2010,05,15,03,39,7.90
2010,05,15,03,40,7.90
2010,05,15,03,41,8.00
2010,05,15,03,42,8.10
2010,05,15,03,43,8.10
2010,05,15,03,44,8.10
2010,05,15,03,45,8.10
2010,05,15,03,46,8.10
2010,05,15,03,47,8.10
2010,05,15,03,48,8.10
2010,05,15,03,49,8.10
2010,05,15,03,50,8.10
2010,05,15,03,51,8.20
2010,05,15,03,52,8.20
2010,05,15,03,53,8.20
2010,05,15,03,54,8.20
2010,05,15,03,55,8.20
2010,05,15,03,56,8.10
2010,05,15,03,57,8.10
2010,05,15,03,58,8.00
2010,05,15,03,59,8.00
2010,05,15,04,00,8.00
2010,05,15,04,01,8.00
2010,05,15,04,02,8.00
2010,05,15,04,03,8.10
2010,05,15,04,04,8.10
2010,05,15,04,05,8.20
2010,05,15,04,06,8.20
2010,05,15,04,07,8.20
2010,05,15,04,08,8.20
2010,05,15,04,09,8.20
2010,05,15,04,10,8.20
2010,05,15,04,11,8.20
2010,05,15,04,12,8.10
2010,05,15,04,13,8.10
2010,05,15,04,14,8.00
2010,05,15,04,15,8.00
2010,05,15,04,16,7.90
2010,05,15,04,17,8.00
2010,05,15,04,18,8.00
2010,05,15,04,19,8.00
2010,05,15,04,20,8.00
2010,05,15,04,21,8.10
2010,05,15,04,22,8.10
2010,05,15,04,23,8.20
2010,05,15,04,24,8.30
2010,05,15,04,25,8.30
2010,05,15,04,26,8.30
2010,05,15,04,27,8.30
2010,05,15,04,28,8.30
2010,05,15,04,29,8.30
2010,05,15,04,30,8.20
2010,05,15,04,31,8.10
2010,05,15,04,32,8.10
2010,05,15,04,33,8.00
2010,05,15,04,34,8.00
2010,05,15,04,35,8.10
2010,05,15,04,36,8.20
2010,05,15,04,37,8.20
2010,05,15,04,38,8.30
2010,05,15,04,39,8.30
2010,05,15,04,40,8.30
2010,05,15,04,41,8.20
2010,05,15,04,42,8.20
2010,05,15,04,43,8.20
2010,05,15,04,44,8.10
2010,05,15,04,45,8.10
2010,05,15,04,46,8.10
2010,05,15,04,47,8.10
2010,05,15,04,48,8.10
2010,05,15,04,49,8.10
2010,05,15,04,50,8.10
2010,05,15,04,51,8.10
2010,05,15,04,52,8.10
2010,05,15,04,53,8.10
2010,05,15,04,54,8.10
2010,05,15,04,55,8.00
2010,05,15,04,56,7.90
2010,05,15,04,57,7.80
2010,05,15,04,58,7.80
2010,05,15,04,59,7.70
2010,05,15,05,00,7.70
2010,05,15,05,01,7.70
2010,05,15,05,02,7.60
2010,05,15,05,03,7.60
2010,05,15,05,04,7.60
2010,05,15,05,05,7.50
2010,05,15,05,06,7.50
2010,05,15,05,07,7.40
2010,05,15,05,08,7.40
2010,05,15,05,09,7.40
2010,05,15,05,10,7.40
2010,05,15,05,11,7.40
2010,05,15,05,12,7.40
2010,05,15,05,13,7.40
2010,05,15,05,14,7.40
2010,05,15,05,15,7.50
2010,05,15,05,16,7.50
2010,05,15,05,17,7.60
2010,05,15,05,18,7.60
2010,05,15,05,19,7.70
2010,05,15,05,20,7.70
2010,05,15,05,21,7.80
2010,05,15,05,22,7.90
2010,05,15,05,23,8.00
2010,05,15,05,24,8.00
2010,05,15,05,25,8.00
2010,05,15,05,26,8.00
2010,05,15,05,27,8.00
2010,05,15,05,28,7.90
2010,05,15,05,29,7.90
2010,05,15,05,30,7.80
2010,05,15,05,31,7.80
2010,05,15,05,32,7.70
2010,05,15,05,33,7.60
2010,05,15,05,34,7.60
2010,05,15,05,35,7.60
2010,05,15,05,36,7.60
2010,05,15,05,37,7.70
2010,05,15,05,38,7.70
2010,05,15,05,39,7.60
2010,05,15,05,40,7.60
2010,05,15,05,41,7.60
2010,05,15,05,42,7.60
2010,05,15,05,43,7.60
2010,05,15,05,44,7.60
2010,05,15,05,45,7.60
2010,05,15,05,46,7.60
2010,05,15,05,47,7.60
2010,05,15,05,48,7.60
2010,05,15,05,49,7.70
2010,05,15,05,50,7.70
2010,05,15,05,51,7.60
2010,05,15,05,52,7.60
2010,05,15,05,53,7.50
2010,05,15,05,54,7.50
2010,05,15,05,55,7.40
2010,05,15,05,56,7.40
2010,05,15,05,57,7.40
2010,05,15,05,58,7.30
2010,05,15,05,59,7.30
2010,05,15,06,00,7.30
2010,05,15,06,01,7.30
2010,05,15,06,02,7.30
2010,05,15,06,03,7.20
2010,05,15,06,04,7.20
2010,05,15,06,05,7.20
2010,05,15,06,06,7.20
2010,05,15,06,07,7.30
2010,05,15,06,08,7.30
2010,05,15,06,09,7.30
2010,05,15,06,10,7.40
2010,05,15,06,11,7.40
2010,05,15,06,12,7.40
2010,05,15,06,13,7.40
2010,05,15,06,14,7.40
2010,05,15,06,15,7.40
2010,05,15,06,16,7.40
2010,05,15,06,17,7.40
2010,05,15,06,18,7.40
2010,05,15,06,19,7.50
2010,05,15,06,20,7.50
2010,05,15,06,21,7.60
2010,05,15,06,22,7.60
2010,05,15,06,23,7.60
2010,05,15,06,24,7.70
2010,05,15,06,25,7.70
2010,05,15,06,26,7.70
2010,05,15,06,27,7.70
2010,05,15,06,28,7.80
2010,05,15,06,29,7.80
2010,05,15,06,30,7.80
2010,05,15,06,31,7.90
2010,05,15,06,32,7.90
2010,05,15,06,33,8.00
2010,05,15,06,34,8.00
2010,05,15,06,35,8.10
2010,05,15,06,36,8.10
2010,05,15,06,37,8.10
2010,05,15,06,38,8.20
2010,05,15,06,39,8.20
2010,05,15,06,40,8.20
2010,05,15,06,41,8.30
2010,05,15,06,42,8.30
2010,05,15,06,43,8.30
2010,05,15,06,44,8.40
2010,05,15,06,45,8.40
2010,05,15,06,46,8.40
2010,05,15,06,47,8.50
2010,05,15,06,48,8.50
2010,05,15,06,49,8.50
2010,05,15,06,50,8.60
2010,05,15,06,51,8.60
2010,05,15,06,52,8.70
2010,05,15,06,53,8.70
2010,05,15,06,54,8.80
2010,05,15,06,55,8.90
2010,05,15,06,56,9.00
2010,05,15,06,57,9.10
2010,05,15,06,58,9.20
2010,05,15,06,59,9.20
2010,05,15,07,00,9.30
2010,05,15,07,01,9.40
2010,05,15,07,02,9.50
2010,05,15,07,03,9.50
2010,05,15,07,04,9.60
2010,05,15,07,05,9.70
2010,05,15,07,06,9.70
2010,05,15,07,07,9.80
2010,05,15,07,08,9.90
2010,05,15,07,09,9.90
2010,05,15,07,10,10.00
2010,05,15,07,11,10.10
2010,05,15,07,12,10.20
2010,05,15,07,13,10.20
2010,05,15,07,14,10.20
2010,05,15,07,15,10.20
2010,05,15,07,16,10.30
2010,05,15,07,17,10.30
2010,05,15,07,18,10.30
2010,05,15,07,19,10.30
2010,05,15,07,20,10.40
2010,05,15,07,21,10.40
2010,05,15,07,22,10.50
2010,05,15,07,23,10.60
2010,05,15,07,24,10.60
2010,05,15,07,25,10.70
2010,05,15,07,26,10.80
2010,05,15,07,27,10.80
2010,05,15,07,28,10.80
2010,05,15,07,29,10.90
2010,05,15,07,30,10.90
2010,05,15,07,31,11.00
2010,05,15,07,32,11.00
2010,05,15,07,33,11.10
2010,05,15,07,34,11.20
2010,05,15,07,35,11.30
2010,05,15,07,36,11.30
2010,05,15,07,37,11.40
2010,05,15,07,38,11.50
2010,05,15,07,39,11.60
2010,05,15,07,40,11.70
2010,05,15,07,41,11.70
2010,05,15,07,42,11.80
2010,05,15,07,43,11.90
2010,05,15,07,44,12.00
2010,05,15,07,45,12.10
2010,05,15,07,46,12.10
2010,05,15,07,47,12.20
2010,05,15,07,48,12.20
2010,05,15,07,49,12.30
2010,05,15,07,50,12.30
2010,05,15,07,51,12.30
2010,05,15,07,52,12.40
2010,05,15,07,53,12.40
2010,05,15,07,54,12.50
2010,05,15,07,55,12.50
2010,05,15,07,56,12.60
2010,05,15,07,57,12.70
2010,05,15,07,58,12.70
2010,05,15,07,59,12.80
2010,05,15,08,00,12.90
2010,05,15,08,01,13.00
2010,05,15,08,02,13.00
2010,05,15,08,03,13.10
2010,05,15,08,04,13.10
2010,05,15,08,05,13.20
2010,05,15,08,06,13.20
2010,05,15,08,07,13.20
2010,05,15,08,08,13.30
2010,05,15,08,09,13.30
2010,05,15,08,10,13.30
2010,05,15,08,11,13.40
2010,05,15,08,12,13.40
2010,05,15,08,13,13.40
2010,05,15,08,14,13.40
2010,05,15,08,15,13.40
2010,05,15,08,16,13.40
2010,05,15,08,17,13.40
2010,05,15,08,18,13.40
2010,05,15,08,19,13.50
2010,05,15,08,20,13.50
2010,05,15,08,21,13.50
2010,05,15,08,22,13.50
2010,05,15,08,23,13.50
2010,05,15,08,24,13.50
2010,05,15,08,25,13.40
2010,05,15,08,26,13.40
2010,05,15,08,27,13.40
2010,05,15,08,28,13.30
2010,05,15,08,29,13.30
2010,05,15,08,30,13.20
2010,05,15,08,31,13.20
2010,05,15,08,32,13.20
2010,05,15,08,33,13.20
2010,05,15,08,34,13.20
2010,05,15,08,35,13.20
2010,05,15,08,36,13.20
2010,05,15,08,37,13.20
2010,05,15,08,38,13.20
2010,05,15,08,39,13.20
2010,05,15,08,40,13.10
2010,05,15,08,41,13.10
2010,05,15,08,42,13.10
2010,05,15,08,43,13.10
2010,05,15,08,44,13.10
2010,05,15,08,45,13.10
2010,05,15,08,46,13.10
2010,05,15,08,47,13.10
2010,05,15,08,48,13.10
2010,05,15,08,49,13.20
2010,05,15,08,50,13.20
2010,05,15,08,51,13.20
2010,05,15,08,52,13.20
2010,05,15,08,53,13.20
2010,05,15,08,54,13.20
2010,05,15,08,55,13.30
2010,05,15,08,56,13.30
2010,05,15,08,57,13.30
2010,05,15,08,58,13.30
2010,05,15,08,59,13.30
2010,05,15,09,00,13.30
2010,05,15,09,01,13.40
2010,05,15,09,02,13.40
2010,05,15,09,03,13.40
2010,05,15,09,04,13.50
2010,05,15,09,05,13.60
2010,05,15,09,06,13.70
2010,05,15,09,07,13.70
2010,05,15,09,08,13.70
2010,05,15,09,09,13.60
2010,05,15,09,10,13.60
2010,05,15,09,11,13.50
2010,05,15,09,12,13.50
2010,05,15,09,13,13.40
2010,05,15,09,14,13.40
2010,05,15,09,15,13.30
2010,05,15,09,16,13.30
2010,05,15,09,17,13.30
2010,05,15,09,18,13.30
2010,05,15,09,19,13.40
2010,05,15,09,20,13.40
2010,05,15,09,21,13.40
2010,05,15,09,22,13.40
2010,05,15,09,23,13.30
2010,05,15,09,24,13.40
2010,05,15,09,25,13.40
2010,05,15,09,26,13.50
2010,05,15,09,27,13.50
2010,05,15,09,28,13.50
2010,05,15,09,29,13.50
2010,05,15,09,30,13.60
2010,05,15,09,31,13.60
2010,05,15,09,32,13.70
2010,05,15,09,33,13.70
2010,05,15,09,34,13.70
2010,05,15,09,35,13.70
2010,05,15,09,36,13.70
2010,05,15,09,37,13.70
2010,05,15,09,38,13.70
2010,05,15,09,39,13.70
2010,05,15,09,40,13.70
2010,05,15,09,41,13.60
2010,05,15,09,42,13.60
2010,05,15,09,43,13.60
2010,05,15,09,44,13.60
2010,05,15,09,45,13.60
2010,05,15,09,46,13.60
2010,05,15,09,47,13.60
2010,05,15,09,48,13.70
2010,05,15,09,49,13.70
2010,05,15,09,50,13.80
2010,05,15,09,51,13.90
2010,05,15,09,52,14.00
2010,05,15,09,53,14.10
2010,05,15,09,54,14.00
2010,05,15,09,55,14.00
2010,05,15,09,56,13.80
2010,05,15,09,57,13.80
2010,05,15,09,58,13.70
2010,05,15,09,59,13.70
2010,05,15,10,00,13.70
2010,05,15,10,01,13.80
2010,05,15,10,02,13.80
2010,05,15,10,03,13.80
2010,05,15,10,04,13.80
2010,05,15,10,05,13.80
2010,05,15,10,06,13.70
2010,05,15,10,07,13.80
2010,05,15,10,08,13.80
2010,05,15,10,09,13.90
2010,05,15,10,10,14.00
2010,05,15,10,11,14.10
2010,05,15,10,12,14.30
2010,05,15,10,13,14.40
2010,05,15,10,14,14.50
2010,05,15,10,15,14.50
2010,05,15,10,16,14.60
2010,05,15,10,17,14.70
2010,05,15,10,18,14.80
2010,05,15,10,19,14.80
2010,05,15,10,20,14.90
2010,05,15,10,21,14.80
2010,05,15,10,22,14.80
2010,05,15,10,23,14.90
2010,05,15,10,24,14.90
2010,05,15,10,25,14.90
2010,05,15,10,26,14.90
2010,05,15,10,27,14.80
2010,05,15,10,28,14.80
2010,05,15,10,29,14.90
2010,05,15,10,30,14.90
2010,05,15,10,31,14.90
2010,05,15,10,32,14.80
2010,05,15,10,33,14.90
2010,05,15,10,34,14.90
2010,05,15,10,35,15.00
2010,05,15,10,36,15.00
2010,05,15,10,37,15.00
2010,05,15,10,38,15.00
2010,05,15,10,39,14.80
2010,05,15,10,40,14.60
2010,05,15,10,41,14.50
2010,05,15,10,42,14.30
2010,05,15,10,43,14.00
2010,05,15,10,44,13.90
2010,05,15,10,45,13.80
2010,05,15,10,46,13.70
2010,05,15,10,47,13.60
2010,05,15,10,48,13.60
2010,05,15,10,49,13.60
2010,05,15,10,50,13.70
2010,05,15,10,51,13.60
2010,05,15,10,52,13.60
2010,05,15,10,53,13.60
2010,05,15,10,54,13.60
2010,05,15,10,55,13.60
2010,05,15,10,56,13.60
2010,05,15,10,57,13.70
2010,05,15,10,58,13.90
2010,05,15,10,59,14.10
2010,05,15,11,00,14.20
2010,05,15,11,01,14.20
2010,05,15,11,02,14.20
2010,05,15,11,03,14.20
2010,05,15,11,04,14.20
2010,05,15,11,05,14.30
2010,05,15,11,06,14.30
2010,05,15,11,07,14.30
2010,05,15,11,08,14.40
2010,05,15,11,09,14.40
2010,05,15,11,10,14.40
2010,05,15,11,11,14.50
2010,05,15,11,12,14.50
2010,05,15,11,13,14.60
2010,05,15,11,14,14.60
2010,05,15,11,15,14.70
2010,05,15,11,16,14.70
2010,05,15,11,17,14.70
2010,05,15,11,18,14.70
2010,05,15,11,19,14.70
2010,05,15,11,20,14.70
2010,05,15,11,21,14.70
2010,05,15,11,22,14.60
2010,05,15,11,23,14.50
2010,05,15,11,24,14.50
2010,05,15,11,25,14.50
2010,05,15,11,26,14.40
2010,05,15,11,27,14.40
2010,05,15,11,28,14.50
2010,05,15,11,29,14.50
2010,05,15,11,30,14.50
2010,05,15,11,31,14.50
2010,05,15,11,32,14.50
2010,05,15,11,33,14.60
2010,05,15,11,34,14.70
2010,05,15,11,35,14.70
2010,05,15,11,36,14.60
2010,05,15,11,37,14.60
2010,05,15,11,38,14.50
2010,05,15,11,39,14.50
2010,05,15,11,40,14.60
2010,05,15,11,41,14.60
2010,05,15,11,42,14.60
2010,05,15,11,43,14.70
2010,05,15,11,44,14.70
2010,05,15,11,45,14.80
2010,05,15,11,46,14.80
2010,05,15,11,47,14.90
2010,05,15,11,48,14.90
2010,05,15,11,49,15.00
2010,05,15,11,50,14.90
2010,05,15,11,51,14.80
2010,05,15,11,52,14.70
2010,05,15,11,53,14.70
2010,05,15,11,54,14.60
2010,05,15,11,55,14.50
2010,05,15,11,56,14.50
2010,05,15,11,57,14.40
2010,05,15,11,58,14.40
2010,05,15,11,59,14.40
2010,05,15,12,00,14.40
2010,05,15,12,01,14.40
2010,05,15,12,02,14.40
2010,05,15,12,03,14.40
2010,05,15,12,04,14.50
2010,05,15,12,05,14.50
2010,05,15,12,06,14.60
2010,05,15,12,07,14.80
2010,05,15,12,08,14.90
2010,05,15,12,09,15.00
2010,05,15,12,10,15.00
2010,05,15,12,11,15.00
2010,05,15,12,12,14.90
2010,05,15,12,13,14.80
2010,05,15,12,14,14.80
2010,05,15,12,15,14.80
2010,05,15,12,16,14.70
2010,05,15,12,17,14.70
2010,05,15,12,18,14.60
2010,05,15,12,19,14.60
2010,05,15,12,20,14.50
2010,05,15,12,21,14.50
2010,05,15,12,22,14.40
2010,05,15,12,23,14.50
2010,05,15,12,24,14.50
2010,05,15,12,25,14.50
2010,05,15,12,26,14.60
2010,05,15,12,27,14.70
2010,05,15,12,28,14.70
2010,05,15,12,29,14.70
2010,05,15,12,30,14.70
2010,05,15,12,31,14.80
2010,05,15,12,32,14.80
2010,05,15,12,33,14.70
2010,05,15,12,34,14.60
2010,05,15,12,35,14.60
2010,05,15,12,36,14.60
2010,05,15,12,37,14.60
2010,05,15,12,38,14.60
2010,05,15,12,39,14.60
2010,05,15,12,40,14.70
2010,05,15,12,41,14.80
2010,05,15,12,42,15.00
2010,05,15,12,43,15.00
2010,05,15,12,44,15.10
2010,05,15,12,45,15.20
2010,05,15,12,46,15.20
2010,05,15,12,47,15.20
2010,05,15,12,48,15.20
2010,05,15,12,49,15.20
2010,05,15,12,50,15.10
2010,05,15,12,51,15.10
2010,05,15,12,52,15.10
2010,05,15,12,53,15.20
2010,05,15,12,54,15.20
2010,05,15,12,55,15.30
2010,05,15,12,56,15.30
2010,05,15,12,57,15.50
2010,05,15,12,58,15.60
2010,05,15,12,59,15.60
2010,05,15,13,00,15.70
2010,05,15,13,01,15.70
2010,05,15,13,02,15.70
2010,05,15,13,03,15.70
2010,05,15,13,04,15.70
2010,05,15,13,05,15.80
2010,05,15,13,06,15.80
2010,05,15,13,07,15.80
2010,05,15,13,08,15.90
2010,05,15,13,09,15.90
2010,05,15,13,10,16.00
2010,05,15,13,11,16.00
2010,05,15,13,12,16.00
2010,05,15,13,13,16.10
2010,05,15,13,14,16.10
2010,05,15,13,15,16.10
2010,05,15,13,16,16.00
2010,05,15,13,17,16.00
2010,05,15,13,18,16.00
2010,05,15,13,19,15.90
2010,05,15,13,20,15.80
2010,05,15,13,21,15.70
2010,05,15,13,22,15.60
2010,05,15,13,23,15.60
2010,05,15,13,24,15.50
2010,05,15,13,25,15.40
2010,05,15,13,26,15.40
2010,05,15,13,27,15.30
2010,05,15,13,28,15.30
2010,05,15,13,29,15.30
2010,05,15,13,30,15.30
2010,05,15,13,31,15.30
2010,05,15,13,32,15.30
2010,05,15,13,33,15.20
2010,05,15,13,34,15.20
2010,05,15,13,35,15.10
2010,05,15,13,36,15.20
2010,05,15,13,37,15.20
2010,05,15,13,38,15.30
2010,05,15,13,39,15.40
2010,05,15,13,40,15.50
2010,05,15,13,41,15.60
2010,05,15,13,42,15.70
2010,05,15,13,43,15.80
2010,05,15,13,44,15.90
2010,05,15,13,45,16.10
2010,05,15,13,46,16.10
2010,05,15,13,47,16.20
2010,05,15,13,48,16.20
2010,05,15,13,49,16.30
2010,05,15,13,50,16.30
2010,05,15,13,51,16.30
2010,05,15,13,52,16.40
2010,05,15,13,53,16.40
2010,05,15,13,54,16.50
2010,05,15,13,55,16.60
2010,05,15,13,56,16.60
2010,05,15,13,57,16.60
2010,05,15,13,58,16.60
2010,05,15,13,59,16.60
2010,05,15,14,00,16.50
2010,05,15,14,01,16.40
2010,05,15,14,02,16.40
2010,05,15,14,03,16.40
2010,05,15,14,04,16.30
2010,05,15,14,05,16.30
2010,05,15,14,06,16.30
2010,05,15,14,07,16.40
2010,05,15,14,08,16.40
2010,05,15,14,09,16.40
2010,05,15,14,10,16.30
2010,05,15,14,11,16.30
2010,05,15,14,12,16.20
2010,05,15,14,13,16.20
2010,05,15,14,14,16.20
2010,05,15,14,15,16.20
2010,05,15,14,16,16.10
2010,05,15,14,17,16.10
2010,05,15,14,18,16.20
2010,05,15,14,19,16.20
2010,05,15,14,20,16.20
2010,05,15,14,21,16.20
2010,05,15,14,22,16.30
2010,05,15,14,23,16.50
2010,05,15,14,24,16.60
2010,05,15,14,25,16.80
2010,05,15,14,26,16.90
2010,05,15,14,27,17.00
2010,05,15,14,28,17.20
2010,05,15,14,29,17.30
2010,05,15,14,30,17.50
2010,05,15,14,31,17.60
2010,05,15,14,32,17.70
2010,05,15,14,33,17.80
2010,05,15,14,34,17.80
2010,05,15,14,35,17.80
2010,05,15,14,36,17.90
2010,05,15,14,37,17.90
2010,05,15,14,38,18.00
2010,05,15,14,39,18.00
2010,05,15,14,40,18.10
2010,05,15,14,41,18.10
2010,05,15,14,42,18.10
2010,05,15,14,43,18.10
2010,05,15,14,44,18.20
2010,05,15,14,45,18.20
2010,05,15,14,46,18.30
2010,05,15,14,47,18.30
2010,05,15,14,48,18.30
2010,05,15,14,49,18.20
2010,05,15,14,50,18.10
2010,05,15,14,51,18.10
2010,05,15,14,52,17.90
2010,05,15,14,53,17.80
2010,05,15,14,54,17.60
2010,05,15,14,55,17.40
2010,05,15,14,56,17.30
2010,05,15,14,57,17.10
2010,05,15,14,58,17.10
2010,05,15,14,59,17.00
2010,05,15,15,00,16.90
2010,05,15,15,01,16.90
2010,05,15,15,02,16.90
2010,05,15,15,03,17.00
2010,05,15,15,04,17.10
2010,05,15,15,05,17.20
2010,05,15,15,06,17.30
2010,05,15,15,07,17.40
2010,05,15,15,08,17.50
2010,05,15,15,09,17.70
2010,05,15,15,10,17.80
2010,05,15,15,11,17.80
2010,05,15,15,12,17.80
2010,05,15,15,13,17.90
2010,05,15,15,14,17.90
2010,05,15,15,15,18.00
2010,05,15,15,16,18.00
2010,05,15,15,17,18.10
2010,05,15,15,18,18.20
2010,05,15,15,19,18.20
2010,05,15,15,20,18.30
2010,05,15,15,21,18.40
2010,05,15,15,22,18.40
2010,05,15,15,23,18.50
2010,05,15,15,24,18.50
2010,05,15,15,25,18.60
2010,05,15,15,26,18.70
2010,05,15,15,27,18.80
2010,05,15,15,28,18.80
2010,05,15,15,29,18.90
2010,05,15,15,30,18.90
2010,05,15,15,31,18.90
2010,05,15,15,32,19.00
2010,05,15,15,33,19.10
2010,05,15,15,34,19.10
2010,05,15,15,35,19.10
2010,05,15,15,36,19.10
2010,05,15,15,37,19.10
2010,05,15,15,38,19.20
2010,05,15,15,39,19.20
2010,05,15,15,40,19.20
2010,05,15,15,41,19.20
2010,05,15,15,42,19.20
2010,05,15,15,43,19.20
2010,05,15,15,44,19.10
2010,05,15,15,45,19.00
2010,05,15,15,46,18.70
2010,05,15,15,47,18.50
2010,05,15,15,48,18.20
2010,05,15,15,49,18.00
2010,05,15,15,50,17.90
2010,05,15,15,51,17.80
2010,05,15,15,52,17.70
2010,05,15,15,53,17.60
2010,05,15,15,54,17.50
2010,05,15,15,55,17.30
2010,05,15,15,56,17.00
2010,05,15,15,57,16.70
2010,05,15,15,58,16.50
2010,05,15,15,59,16.40
2010,05,15,16,00,16.30
2010,05,15,16,01,16.10
2010,05,15,16,02,16.00
2010,05,15,16,03,16.00
2010,05,15,16,04,15.90
2010,05,15,16,05,15.90
2010,05,15,16,06,15.90
2010,05,15,16,07,15.90
2010,05,15,16,08,15.90
2010,05,15,16,09,15.90
2010,05,15,16,10,16.00
2010,05,15,16,11,16.00
2010,05,15,16,12,16.00
2010,05,15,16,13,16.00
2010,05,15,16,14,15.90
2010,05,15,16,15,15.90
2010,05,15,16,16,15.80
2010,05,15,16,17,15.80
2010,05,15,16,18,15.80
2010,05,15,16,19,15.80
2010,05,15,16,20,15.80
2010,05,15,16,21,15.80
2010,05,15,16,22,15.80
2010,05,15,16,23,15.90
2010,05,15,16,24,16.00
2010,05,15,16,25,16.00
2010,05,15,16,26,16.10
2010,05,15,16,27,16.10
2010,05,15,16,28,16.10
2010,05,15,16,29,16.10
2010,05,15,16,30,16.10
2010,05,15,16,31,16.10
2010,05,15,16,32,16.10
2010,05,15,16,33,16.00
2010,05,15,16,34,16.00
2010,05,15,16,35,15.90
2010,05,15,16,36,15.90
2010,05,15,16,37,15.80
2010,05,15,16,38,15.80
2010,05,15,16,39,15.70
2010,05,15,16,40,15.70
2010,05,15,16,41,15.70
2010,05,15,16,42,15.70
2010,05,15,16,43,15.70
2010,05,15,16,44,15.80
2010,05,15,16,45,15.80
2010,05,15,16,46,15.80
2010,05,15,16,47,15.90
2010,05,15,16,48,15.90
2010,05,15,16,49,15.90
2010,05,15,16,50,15.90
2010,05,15,16,51,15.90
2010,05,15,16,52,15.90
2010,05,15,16,53,15.90
2010,05,15,16,54,15.90
2010,05,15,16,55,15.90
2010,05,15,16,56,15.90
2010,05,15,16,57,15.80
2010,05,15,16,58,15.80
2010,05,15,16,59,15.80
2010,05,15,17,00,15.80
2010,05,15,17,01,15.70
2010,05,15,17,02,15.70
2010,05,15,17,03,15.70
2010,05,15,17,04,15.60
2010,05,15,17,05,15.50
2010,05,15,17,06,15.50
2010,05,15,17,07,15.40
2010,05,15,17,08,15.40
2010,05,15,17,09,15.40
2010,05,15,17,10,15.50
2010,05,15,17,11,15.40
2010,05,15,17,12,15.40
2010,05,15,17,13,15.40
2010,05,15,17,14,15.50
2010,05,15,17,15,15.50
2010,05,15,17,16,15.50
2010,05,15,17,17,15.50
2010,05,15,17,18,15.60
2010,05,15,17,19,15.60
2010,05,15,17,20,15.60
2010,05,15,17,21,15.60
2010,05,15,17,22,15.60
2010,05,15,17,23,15.60
2010,05,15,17,24,15.60
2010,05,15,17,25,15.60
2010,05,15,17,26,15.60
2010,05,15,17,27,15.60
2010,05,15,17,28,15.50
2010,05,15,17,29,15.50
2010,05,15,17,30,15.50
2010,05,15,17,31,15.40
2010,05,15,17,32,15.50
2010,05,15,17,33,15.50
2010,05,15,17,34,15.50
2010,05,15,17,35,15.60
2010,05,15,17,36,15.60
2010,05,15,17,37,15.60